English version Home page |
Updated on September 13, 2009 |
プロフィール
|
軌道要素Epoch 2002 Oct. 13.0 TT = JDT 2452560.5 T 2002 Oct. 8.08524 TT MPC q 1.1919828 (2000.0) P Q n 0.14766341 Peri. 1.31153 +0.95763766 -0.27201905 a 3.5450371 Node 15.50376 +0.26088857 +0.68050405 e 0.6637601 Incl. 20.71024 +0.12193141 +0.68038215 P 6.67
|
星図
|
光度変化m1 = 18.5 + 5 logΔ + 10.0 log r
|
軌道要素はM.P.E.C. 2009-Q69に掲載されたものです。
|